This is the latest recevied weather packets stored in our database for station/object K0QJ. If no packets are shown the sender has not sent any weather packets the latest 10 day(s).
| Time | Temp. | Humidity | Pressure | Rain* | Wind** | Luminosity | Snow |
|---|---|---|---|---|---|---|---|
| 1778084541 | 12.78° C | 42% | 1018 hPa | 0 mm | - | 297 W/m² | - |
| 1778084238 | 12.78° C | 44% | 1018 hPa | 0 mm | - | 322 W/m² | - |
| 1778083935 | 13.33° C | 43% | 1018 hPa | 0 mm | - | 341 W/m² | - |
| 1778083633 | 13.33° C | 44% | 1017.9 hPa | 0 mm | - | 327 W/m² | - |
| 1778083329 | 12.78° C | 45% | 1018 hPa | 0 mm | - | 287 W/m² | - |
| 1778083028 | 12.78° C | 46% | 1017.8 hPa | 0 mm | - | 269 W/m² | - |
| 1778082724 | 12.78° C | 46% | 1017.7 hPa | 0 mm | - | 246 W/m² | - |
| 1778081586 | 12.78° C | 42% | 1017.6 hPa | 0 mm | - | 507 W/m² | - |
| 1778081283 | 12.78° C | 41% | 1017.6 hPa | 0 mm | - | 684 W/m² | - |
| 1778080980 | 12.78° C | 42% | 1017.5 hPa | 0 mm | - | 667 W/m² | - |
| 1778080679 | 12.78° C | 44% | 1017.6 hPa | 0 mm | - | 646 W/m² | - |
| 1778080375 | 12.22° C | 49% | 1017.6 hPa | 0 mm | - | 645 W/m² | - |
| 1778080072 | 12.22° C | 48% | 1017.4 hPa | 0 mm | - | 622 W/m² | - |
| 1778079769 | 12.78° C | 51% | 1017.8 hPa | 0 mm | - | 619 W/m² | - |
| 1778079466 | 12.22° C | 51% | 1017.6 hPa | 0 mm | - | 596 W/m² | - |
| 1778079162 | 11.67° C | 56% | 1017.5 hPa | 0 mm | - | 576 W/m² | - |
| 1778078860 | 11.67° C | 55% | 1017.6 hPa | 0 mm | - | 527 W/m² | - |
| 1778078557 | 11.67° C | 57% | 1017.6 hPa | 0 mm | - | 530 W/m² | - |
| 1778078254 | 11.11° C | 57% | 1017.6 hPa | 0 mm | - | 478 W/m² | - |
| 1778077952 | 11.67° C | 59% | 1017.7 hPa | 0 mm | - | 204 W/m² | - |
| 1778077650 | 11.11° C | 58% | 1017.9 hPa | 0 mm | - | 398 W/m² | - |
| 1778077348 | 11.11° C | 59% | 1017.7 hPa | 0 mm | - | 372 W/m² | - |
| 1778077046 | 10.56° C | 59% | 1017.9 hPa | 0 mm | - | 105 W/m² | - |
| 1778076744 | 10.56° C | 60% | 1017.6 hPa | 0 mm | - | 159 W/m² | - |
| 1778076441 | 10.56° C | 59% | 1017.5 hPa | 0 mm | - | 77 W/m² | - |
* Rain latest hour (hover to see other rain measurements)
** Current wind speed in m/s (hover to see current wind gust speed)